Wind_Speed
19 16 20 25 8 9 12 20 17 20 20 27 32 27 35 37 34 32 36 35 36 32 30 30 30 31 34 37 35 25 10 16 12 17 14 25 24 23 19 17 17 16 13 10 11
22 15 18 21 18 11 9 14 22 24 18 24 24 29 35 36 33 35 32 33 32 32 30 28 29 32 35 36 30 23 10 16 22 22 17 26 22 22 18 15 15 14 13 11 11
24 18 16 17 20 19 20 20 22 20 22 25 23 29 35 37 29 29 28 27 28 30 32 27 27 31 33 34 28 23 12 20 23 24 20 24 20 19 17 13 16 15 12 11 11
22 22 18 15 17 20 18 28 28 28 23 22 26 29 29 30 13 27 28 26 27 27 27 27 27 27 29 30 26 17 14 15 18 18 18 24 20 20 21 20 15 13 13 13 13
21 21 21 17 13 17 15 21 22 22 22 23 26 28 29 28 24 30 28 27 27 28 28 27 25 25 27 29 25 15 15 14 16 17 18 19 19 19 18 16 15 14 15 15 15
20 20 20 19 14 15 18 18 20 20 24 25 26 24 24 17 31 28 27 27 28 27 27 28 24 22 23 25 23 15 14 14 15 15 16 18 18 17 18 17 16 16 16 17 17
19 18 18 18 18 19 24 22 22 21 24 25 26 22 21 18 26 27 27 26 26 27 27 24 26 21 20 20 20 16 15 13 14 14 14 14 16 18 17 17 17 17 18 19 20
18 20 18 18 18 20 21 25 25 23 25 27 26 22 18 20 28 28 27 26 25 23 23 24 24 17 21 18 18 16 14 13 15 15 15 14 9 18 17 17 18 19 20 21 22
14 16 18 20 23 23 29 27 25 25 24 23 22 16 21 21 24 25 28 26 25 23 22 21 21 16 19 18 17 17 10 12 12 18 16 16 9 20 18 18 19 20 21 22 22
13 10 15 19 20 21 27 27 25 23 22 20 17 12 21 22 21 23 24 23 25 22 21 19 17 16 17 19 10 12 10 11 8 18 18 19 20 21 18 18 19 20 21 23 23
18 14 15 19 19 19 22 27 25 22 18 11 14 14 23 22 19 21 22 22 21 23 21 20 16 13 17 18 10 8 8 7 13 12 13 17 21 20 22 23 23 22 24 25 27
30 23 19 18 15 22 23 25 23 24 20 17 18 20 21 21 20 18 19 19 20 18 18 18 15 14 15 13 9 7 7 5 8 11 13 16 22 22 23 25 25 25 25 26 28
26 23 21 19 17 23 16 21 22 24 21 21 18 17 16 18 19 18 17 18 17 17 18 17 15 14 13 11 9 8 6 6 6 8 12 18 23 19 23 25 27 26 26 27 29
25 28 26 25 26 27 24 26 21 17 13 12 14 14 15 15 14 15 14 17 17 16 16 10 16 14 11 10 8 7 7 7 7 7 3 8 8 14 14 24 25 29 31 32 33
16 14 16 17 16 12 11 8 4 4 3 5 10 14 16 7 16 12 13 13 16 16 6 11 17 14 12 9 9 6 6 7 9 11 13 13 10 21 20 24 28 32 28 27 26
7 6 3 2 5 3 1 2 1 2 4 5 10 11 12 14 12 13 10 11 13 9 4 13 14 10 9 8 7 4 5 8 12 11 5 10 11 12 15 16 20 15 13 13 15
12 8 2 5 7 4 3 2 1 3 10 9 13 12 10 11 12 13 14 15 9 7 10 11 9 7 8 7 6 6 4 3 2 2 4 6 8 20 17 17 17 17 14 13 14
14 12 12 11 11 2 2 3 5 12 7 14 15 13 13 13 11 13 13 8 8 6 12 6 3 10 9 9 5 5 6 3 4 2 4 9 9 5 7 10 12 13 13 13 15
14 14 14 13 11 6 2 2 5 10 18 15 14 10 11 8 8 7 8 6 6 6 3 4 4 6 8 8 7 4 5 7 4 8 4 8 11 19 20 20 19 17 14 13 14
12 13 15 15 13 9 4 9 11 18 19 15 5 7 4 7 8 8 8 7 6 7 7 5 3 8 7 8 9 10 6 1 4 3 5 6 9 14 11 13 13 13 12 11 11
11 10 14 13 12 9 12 18 18 17 13 6 5 7 7 8 7 7 6 4 6 6 7 5 5 3 8 9 10 10 9 7 6 5 3 5 5 8 10 12 10 9 9 11 12
8 9 9 10 7 9 15 15 14 10 4 4 6 6 8 7 7 6 5 4 7 7 5 6 3 3 5 11 10 12 10 10 6 4 8 6 15 19 10 16 15 12 11 13 13
6 6 7 7 7 8 10 11 10 9 7 7 5 5 5 5 3 4 5 4 6 7 5 5 2 2 3 6 12 15 16 16 12 12 14 6 10 9 9 10 13 16 17 21 20
5 4 4 5 5 5 5 4 7 6 6 5 6 5 5 5 2 3 3 4 5 6 5 5 8 9 6 4 9 15 15 14 18 12 15 32 40 28 24 20 17 19 23 30 22
8 4 3 2 2 2 1 3 1 2 2 4 4 4 5 3 3 4 4 5 7 7 8 8 10 12 17 19 21 24 24 21 27 35 24 28 26 35 25 27 28 27 25 27 27
9 7 5 2 1 2 2 2 3 3 2 4 3 4 5 6 6 4 4 6 8 8 10 11 8 14 24 21 20 26 29 30 33 33 40 38 40 18 12 8 5 10 15 20 20
10 8 6 5 3 3 4 5 5 5 5 6 5 6 5 8 7 8 10 11 11 10 11 11 9 8 9 12 16 21 8 12 18 23 26 32 16 19 18 21 25 22 19 19 20
Wind_Direction
6 19 16 16 76 161 165 181 191 188 193 170 173 176 175 167 167 174 182 178 171 173 175 176 177 178 176 177 177 176 161 174 170 175 200 182 183 186 190 189 199 205 222 227 224
12 23 23 25 45 78 102 171 178 173 161 157 160 173 173 160 163 180 182 176 170 167 169 173 174 173 177 179 176 170 174 175 164 188 201 184 187 189 190 197 206 210 214 216 222
22 30 37 41 44 46 83 118 147 165 146 146 160 168 175 163 165 170 173 173 167 164 164 164 172 173 179 178 177 174 190 197 192 188 183 190 193 188 190 186 204 212 220 229 237
44 36 43 43 53 54 78 114 130 143 144 154 158 158 173 157 172 168 166 168 165 163 164 165 171 177 182 181 182 189 198 188 188 188 187 188 190 192 196 213 218 226 231 238 244
48 47 41 49 70 83 98 113 126 134 137 145 153 153 170 161 162 162 163 164 165 165 163 160 164 178 181 186 187 189 187 183 187 190 188 190 197 204 214 222 228 234 241 248 254
54 51 42 52 91 94 127 105 116 124 135 140 145 151 169 162 151 155 159 164 164 165 165 156 169 172 187 187 188 188 179 182 185 192 195 200 207 214 226 233 239 245 250 253 258
47 43 48 73 80 105 115 109 129 125 131 138 143 150 157 156 147 151 156 161 164 167 169 171 167 174 178 186 188 190 188 185 192 198 206 212 224 227 234 240 246 253 258 263 267
46 56 61 96 94 103 111 124 116 127 131 135 138 146 148 154 146 150 151 159 163 167 168 168 170 176 181 178 181 178 181 182 201 206 213 217 230 242 242 247 252 257 263 266 268
45 52 69 109 105 111 115 120 119 122 124 128 128 140 137 150 146 148 154 159 161 163 165 170 172 169 171 173 169 172 184 195 215 215 218 221 230 254 250 252 256 259 261 266 270
68 64 85 107 110 114 120 121 115 120 124 122 125 137 142 141 146 149 153 158 159 160 164 169 169 168 164 170 173 192 171 193 206 224 227 235 239 257 254 253 255 258 264 268 272
62 97 97 106 126 128 134 128 125 126 131 126 142 147 141 139 144 147 149 150 162 162 167 168 162 158 180 182 186 182 190 185 211 234 235 244 248 245 260 257 258 262 266 270 274
64 76 89 94 105 123 131 130 129 117 105 109 123 135 138 143 136 145 150 150 160 160 165 167 174 178 178 186 187 167 164 180 244 244 249 255 256 255 256 264 265 266 268 272 275
54 73 86 86 95 113 110 118 116 114 98 105 114 124 130 137 139 146 154 152 154 157 159 170 167 170 171 176 179 183 167 213 222 266 271 283 283 270 261 263 270 272 271 273 274
69 82 85 87 95 98 110 113 102 99 94 97 106 115 128 131 130 140 148 151 156 160 147 150 160 164 173 182 191 197 214 235 256 283 270 294 285 261 267 280 278 275 273 269 269
78 84 74 90 98 95 99 100 93 94 98 122 100 129 135 142 143 138 148 154 154 156 166 162 163 167 177 182 192 217 219 251 273 283 291 277 267 285 279 278 276 273 268 268 267
86 90 67 325 322 345 311 334 339 98 84 123 131 134 126 136 143 137 145 154 153 156 150 165 166 170 182 185 201 224 256 284 285 283 261 247 243 273 265 263 260 271 273 269 263
53 61 37 298 291 277 268 274 35 69 126 133 135 147 142 138 142 145 151 153 147 131 146 156 170 181 191 205 225 242 270 320 267 210 276 275 262 265 256 258 267 278 276 270 271
32 33 36 23 21 16 125 83 63 133 129 146 140 138 150 145 143 149 156 160 164 160 158 162 191 205 215 220 230 228 212 211 272 283 329 290 245 276 268 259 267 275 270 274 278
25 28 29 31 31 55 130 70 100 137 142 140 136 137 143 157 165 167 177 180 185 186 178 168 227 216 229 223 215 224 219 238 277 286 271 244 277 284 275 271 273 270 268 273 285
21 23 32 29 35 41 78 109 128 138 140 133 128 148 145 163 153 166 180 201 200 200 198 209 204 221 225 227 228 218 213 189 230 279 271 253 266 260 298 281 281 254 260 278 286
14 21 24 41 43 74 107 115 128 137 138 137 145 146 161 161 164 171 190 199 199 194 204 199 222 235 225 231 231 223 225 217 227 233 277 301 263 281 300 286 265 257 273 290 298
8 25 22 33 57 88 109 121 129 138 149 135 137 143 155 159 165 178 186 204 192 195 198 212 220 244 255 252 242 223 233 221 230 198 240 280 276 293 306 269 255 262 272 305 300
359 12 23 34 60 84 110 122 129 129 127 134 144 154 168 164 169 210 212 208 214 210 200 204 231 280 257 299 259 248 253 235 236 258 242 258 260 285 311 292 257 258 277 294 296
12 6 359 18 62 87 96 108 134 134 134 136 146 151 162 176 172 198 215 233 220 227 245 256 248 234 256 259 279 279 283 258 232 239 257 241 273 282 280 270 262 263 271 286 286
12 5 13 3 1 17 76 138 157 166 150 156 163 163 171 202 229 238 237 241 247 250 253 259 270 268 270 270 270 272 266 256 243 254 250 266 269 284 288 288 283 276 267 275 286
8 0 348 338 283 270 295 236 195 224 223 212 214 225 217 207 210 227 242 253 264 264 260 267 275 286 286 288 272 268 266 259 252 250 259 269 281 308 305 280 299 308 270 263 267
349 356 346 334 310 272 257 248 263 248 245 239 232 221 239 252 264 269 269 266 255 260 260 260 274 309 281 299 305 285 290 266 269 265 263 255 314 299 287 274 274 276 271 271 272
Height
3018 3013 3009 3001 2994 2993 2996 3001 3006 3012 3016 3019 3026 3036 3044 3047 3055 3065 3070 3076 3079 3087 3095 3100 3106 3111 3116 3120 3125 3130 3137 3140 3142 3145 3143 3145 3149 3151 3154 3157 3158 3160 3161 3163 3164
3020 3016 3012 3007 2998 2995 2997 3001 3006 3013 3018 3022 3031 3038 3047 3050 3057 3063 3073 3078 3081 3087 3094 3101 3106 3111 3116 3121 3127 3131 3136 3137 3136 3139 3141 3145 3148 3151 3154 3156 3157 3159 3160 3162 3163
3023 3019 3016 3012 3007 3002 3000 3004 3010 3016 3022 3028 3034 3041 3050 3050 3060 3066 3074 3081 3085 3088 3092 3101 3107 3112 3117 3122 3127 3130 3132 3133 3135 3137 3140 3144 3147 3150 3153 3155 3155 3157 3159 3161 3162
3027 3023 3020 3016 3015 3010 3009 3012 3015 3022 3027 3032 3037 3044 3054 3057 3067 3068 3075 3082 3087 3091 3096 3101 3108 3113 3118 3123 3127 3130 3131 3133 3136 3138 3140 3143 3147 3149 3150 3151 3155 3157 3158 3159 3160
3032 3029 3025 3022 3019 3018 3018 3021 3024 3028 3033 3037 3043 3047 3056 3057 3060 3068 3075 3081 3088 3092 3097 3102 3108 3114 3118 3121 3126 3129 3131 3134 3137 3139 3142 3145 3146 3148 3150 3152 3154 3156 3157 3158 3158
3036 3033 3030 3027 3025 3024 3025 3029 3031 3035 3040 3044 3048 3054 3062 3065 3064 3069 3076 3084 3088 3094 3097 3102 3108 3113 3116 3120 3125 3129 3131 3134 3137 3140 3142 3144 3146 3148 3149 3151 3153 3154 3155 3156 3156
3041 3038 3035 3033 3031 3031 3032 3034 3037 3041 3045 3049 3053 3059 3064 3068 3069 3074 3080 3085 3089 3094 3098 3103 3106 3113 3117 3121 3126 3129 3132 3135 3137 3139 3142 3144 3146 3146 3148 3149 3151 3152 3153 3153 3153
3047 3043 3041 3038 3038 3037 3038 3040 3044 3048 3051 3055 3059 3064 3066 3072 3073 3076 3080 3086 3091 3096 3100 3104 3109 3113 3117 3121 3126 3130 3133 3135 3136 3138 3140 3143 3145 3144 3146 3147 3148 3149 3149 3149 3149
3051 3050 3047 3045 3044 3042 3042 3047 3051 3054 3057 3060 3064 3068 3071 3076 3076 3078 3082 3088 3093 3097 3102 3106 3110 3114 3118 3122 3127 3129 3132 3135 3135 3136 3138 3140 3142 3140 3142 3143 3144 3145 3145 3145 3145
3054 3053 3052 3051 3050 3050 3049 3052 3056 3060 3063 3065 3069 3075 3075 3077 3081 3085 3088 3092 3094 3099 3104 3108 3112 3116 3119 3121 3125 3128 3130 3133 3135 3134 3136 3136 3138 3137 3139 3140 3140 3140 3140 3140 3140
3056 3056 3057 3056 3056 3056 3057 3058 3063 3068 3068 3069 3072 3073 3076 3081 3087 3087 3089 3092 3097 3101 3104 3108 3113 3116 3117 3121 3124 3128 3130 3132 3131 3132 3134 3134 3134 3135 3134 3135 3135 3136 3135 3135 3135
3064 3064 3064 3063 3062 3062 3065 3065 3067 3070 3073 3074 3077 3079 3081 3084 3086 3090 3094 3098 3101 3103 3106 3110 3113 3116 3119 3121 3124 3127 3130 3131 3131 3131 3133 3132 3130 3131 3130 3130 3130 3131 3131 3131 3129
3073 3071 3069 3071 3072 3071 3072 3073 3073 3075 3078 3081 3082 3085 3087 3089 3090 3094 3098 3099 3102 3105 3107 3110 3114 3117 3119 3121 3124 3127 3129 3129 3131 3130 3130 3129 3125 3126 3126 3126 3125 3125 3125 3124 3123
3081 3080 3079 3078 3081 3079 3080 3079 3079 3080 3083 3089 3088 3089 3091 3093 3096 3097 3099 3102 3104 3107 3108 3112 3115 3117 3119 3122 3124 3126 3127 3128 3129 3130 3130 3129 3125 3122 3122 3120 3121 3119 3119 3117 3116
3088 3086 3086 3086 3085 3085 3085 3085 3084 3084 3086 3094 3092 3093 3093 3096 3099 3100 3101 3104 3106 3108 3110 3113 3114 3117 3119 3121 3123 3126 3126 3127 3127 3127 3127 3125 3125 3113 3115 3115 3113 3110 3110 3111 3111
3093 3091 3089 3088 3087 3086 3085 3085 3086 3088 3090 3092 3092 3095 3096 3097 3099 3101 3104 3107 3109 3110 3111 3113 3115 3118 3119 3121 3123 3124 3126 3126 3125 3125 3124 3121 3122 3108 3111 3109 3105 3105 3105 3106 3107
3095 3093 3091 3089 3088 3087 3085 3085 3087 3086 3093 3095 3095 3097 3099 3101 3103 3103 3106 3108 3109 3113 3114 3115 3117 3118 3120 3122 3123 3124 3125 3126 3125 3123 3118 3117 3117 3106 3105 3104 3104 3102 3102 3103 3103
3097 3094 3091 3088 3085 3084 3085 3087 3087 3089 3090 3094 3096 3099 3101 3103 3105 3107 3108 3110 3111 3113 3114 3116 3120 3119 3119 3121 3122 3123 3125 3126 3122 3118 3115 3115 3109 3102 3101 3101 3101 3100 3100 3100 3100
3098 3096 3093 3090 3087 3086 3087 3087 3090 3091 3094 3097 3100 3102 3104 3106 3108 3109 3110 3111 3112 3113 3116 3117 3118 3118 3119 3120 3122 3122 3124 3125 3124 3121 3119 3110 3104 3101 3099 3099 3098 3098 3097 3097 3097
3100 3098 3094 3091 3088 3087 3088 3087 3090 3093 3096 3098 3101 3103 3105 3106 3108 3109 3110 3111 3112 3113 3114 3115 3116 3116 3117 3118 3120 3121 3123 3125 3124 3121 3114 3103 3103 3098 3097 3097 3096 3095 3096 3095 3095
3102 3100 3098 3095 3093 3091 3090 3091 3094 3096 3098 3100 3101 3102 3104 3106 3107 3108 3110 3111 3111 3112 3113 3114 3116 3118 3117 3116 3116 3119 3119 3121 3121 3120 3115 3106 3098 3096 3096 3095 3094 3094 3094 3093 3093
3104 3102 3101 3099 3098 3096 3094 3095 3097 3099 3100 3101 3101 3102 3104 3105 3106 3107 3108 3109 3110 3111 3112 3113 3114 3115 3115 3113 3114 3115 3116 3118 3119 3117 3115 3112 3095 3093 3091 3091 3092 3092 3092 3091 3090
3104 3104 3103 3102 3100 3099 3099 3099 3099 3100 3101 3102 3103 3104 3105 3106 3108 3107 3108 3109 3110 3111 3111 3112 3114 3114 3113 3114 3111 3111 3111 3113 3114 3112 3109 3110 3093 3091 3091 3091 3090 3090 3088 3087 3087
3105 3104 3104 3104 3102 3102 3101 3102 3101 3101 3101 3102 3104 3105 3106 3107 3107 3107 3108 3109 3109 3110 3111 3112 3111 3111 3111 3110 3109 3108 3108 3108 3109 3107 3101 3092 3087 3088 3090 3089 3087 3086 3085 3083 3082
3106 3105 3103 3103 3103 3103 3103 3102 3102 3103 3103 3103 3104 3105 3105 3107 3107 3107 3108 3108 3109 3109 3109 3110 3108 3108 3106 3105 3104 3101 3101 3101 3098 3096 3096 3088 3087 3080 3085 3083 3081 3079 3079 3077 3077
3107 3106 3104 3102 3102 3103 3103 3103 3102 3102 3103 3104 3105 3105 3105 3105 3106 3106 3106 3106 3106 3106 3106 3106 3106 3103 3099 3098 3096 3092 3091 3090 3089 3089 3083 3084 3074 3079 3077 3076 3075 3073 3072 3072 3072
3106 3105 3104 3103 3102 3102 3102 3102 3102 3102 3102 3103 3104 3104 3104 3105 3105 3105 3105 3105 3104 3104 3105 3105 3104 3104 3097 3094 3093 3086 3079 3079 3079 3079 3079 3079 3073 3075 3073 3072 3070 3069 3069 3069 3068